This is the latest recevied weather packets stored in our database for station/object KO4LFZ. If no packets are shown the sender has not sent any weather packets the latest 10 day(s).
| Time | Temp. | Humidity | Pressure | Rain* | Wind** | Luminosity | Snow |
|---|---|---|---|---|---|---|---|
| 1777303179 | 25.56° C | 76% | 1010.5 hPa | 0 mm | - | 125 W/m² | - |
| 1777302877 | 25° C | 77% | 1010.4 hPa | 0 mm | - | 314 W/m² | - |
| 1777302573 | 25° C | 77% | 1010.7 hPa | 0 mm | - | 321 W/m² | - |
| 1777302272 | 25° C | 77% | 1010.4 hPa | 0 mm | - | 198 W/m² | - |
| 1777301969 | 25° C | 77% | 1010.4 hPa | 0 mm | - | 150 W/m² | - |
| 1777301667 | 25.56° C | 77% | 1010.6 hPa | 0 mm | - | 149 W/m² | - |
| 1777301364 | 25.56° C | 76% | 1010.3 hPa | 0 mm | - | 285 W/m² | - |
| 1777301060 | 25° C | 76% | 1010.3 hPa | 0 mm | - | 553 W/m² | - |
| 1777300757 | 25.56° C | 76% | 1010.2 hPa | 0 mm | - | 293 W/m² | - |
| 1777300456 | 25° C | 76% | 1010.2 hPa | 0 mm | - | 517 W/m² | - |
| 1777300153 | 25° C | 76% | 1010.1 hPa | 0 mm | - | 511 W/m² | - |
| 1777299849 | 24.44° C | 77% | 1010.4 hPa | 0 mm | - | 533 W/m² | - |
| 1777299547 | 24.44° C | 77% | 1010 hPa | 0 mm | - | 492 W/m² | - |
| 1777299244 | 23.33° C | 78% | 1010 hPa | 0 mm | - | 362 W/m² | - |
| 1777298941 | 23.33° C | 78% | 1010 hPa | 0 mm | - | 362 W/m² | - |
| 1777298638 | 23.33° C | 78% | 1010.3 hPa | 0 mm | - | 219 W/m² | - |
| 1777298334 | 23.33° C | 77% | 1010 hPa | 0 mm | - | 166 W/m² | - |
| 1777298030 | 23.33° C | 78% | 1010.2 hPa | 0 mm | - | 341 W/m² | - |
| 1777297725 | 22.78° C | 78% | 1010.3 hPa | 0 mm | - | 356 W/m² | - |
| 1777297424 | 22.78° C | 79% | 1010.4 hPa | 0 mm | - | 320 W/m² | - |
| 1777297121 | 22.78° C | 79% | 1010.8 hPa | 0 mm | - | 274 W/m² | - |
* Rain latest hour (hover to see other rain measurements)
** Current wind speed in m/s (hover to see current wind gust speed)